Location: Bijele Vode
(45.2833°N, 16.2000°E)
Time: 12:15:15
(UTC+00:00)

CENTAUR R/B - Pass Details

Date: 20 January 2021
Orbit: 742 x 1446 km, 63.5° (Epoch: 02 March)

Event Time Altitude Azimuth Distance (km) Brightness Sun altitude
Rises 16:35:08 0° 309° (NW) 4,318 6.3 -8.8°
Reaches altitude 10° 16:39:12 10° 291° (WNW) 3,439 6.2 -9.5°
Maximum altitude 16:44:00 17° 256° (WSW) 3,030 6.4 -10.3°
Drops below altitude 10° 16:48:58 10° 221° (SW) 3,550 6.4 -11.1°
Sets 16:53:18 0° 203° (SSW) 4,522 6.6 -11.8°
